Juliana Airport, Saint Maartin

3:07 PM AST on February 10, 2016 (GMT -0400)
Princess Juliana International

Weather History for TNCM - September, 2013

Change the Weather History Date:

Monday, September 2, 2013

  Actual Average Record
Temperature  
Mean Temperature 86 °F -  
Max Temperature 90 °F 87 °F 90 °F (2013)
Min Temperature 82 °F 78 °F 77 °F (1996)
Cooling Degree Days 21    
Growing Degree Days 36 (Base 50)    
Moisture  
Dew Point 73 °F    
Average Humidity 66    
Maximum Humidity 74    
Minimum Humidity 48    
Precipitation  
Precipitation 0.02 in 0.17 in - ()
Sea Level Pressure  
Sea Level Pressure 29.90 in    
Wind  
Wind Speed 12 mph ()    
Max Wind Speed 16 mph    
Max Gust Speed -    
Visibility 8.2 miles    
Events Rain    
Averages and records for this station are not official NWS values.
T = Trace of Precipitation, MM = Missing Value Source: Averaged Metar Reports

Daily Weather History Graph

Daily Weather History Graph

Search for Another Location

Airport or City:

Trip Planner

Search our weather history database for the weather conditions in past years. The results will help you decide how hot, cold, wet, or windy it might be!

Date:

Astronomy

Sep. 02, 2013 Rise Set
Actual Time 5:58 AM AST 6:25 PM AST
Civil Twilight 5:36 AM AST 6:47 PM AST
Nautical Twilight 5:10 AM AST 7:13 PM AST
Astronomical Twilight 4:44 AM AST 7:39 PM AST
Moon 3:26 AM AST (9/2) 4:25 PM AST (9/2)
Length of Visible Light 13h 11m
Length of Day
12h 27m
Waning Crescent, 8% of the Moon is Illuminated
Sep 2
Waning Crescent
Sep 5
New
Sep 12
First Quarter
Sep 19
Full
Sep 26
Last Quarter

Hourly Weather History & Observations

Time (AST) Temp. Heat Index Dew Point Humidity Pressure Visibility Wind Dir Wind Speed Gust Speed Precip Events Conditions
12:00 AM 82.4 °F 88.2 °F 73.4 °F 74% 29.95 in 6.2 mi ENE 11.5 mph - N/A   Scattered Clouds
1:00 AM 82.4 °F 88.2 °F 73.4 °F 74% 29.92 in 6.2 mi East 12.7 mph - N/A   Partly Cloudy
2:00 AM 83 °F - 72 °F 63% 29.91 in 16 mi ENE 12.7 mph - -   Scattered Clouds
2:00 AM 82.4 °F 88.2 °F 73.4 °F 74% 29.89 in 6.2 mi ENE 12.7 mph - N/A   Partly Cloudy
3:00 AM 82.4 °F 88.2 °F 73.4 °F 74% 29.89 in 6.2 mi East 10.4 mph - N/A   Partly Cloudy
4:00 AM 82.4 °F 88.2 °F 73.4 °F 74% 29.89 in 6.2 mi ENE 12.7 mph - N/A   Partly Cloudy
5:00 AM 83 °F - 74 °F 67% 29.89 in 16 mi ENE 12.7 mph - -   Partly Cloudy
5:00 AM 82.4 °F 88.2 °F 73.4 °F 74% 29.89 in 6.2 mi ENE 12.7 mph - N/A   Scattered Clouds
6:00 AM 82.4 °F 88.2 °F 73.4 °F 74% 29.89 in 6.2 mi East 11.5 mph - N/A   Partly Cloudy
7:00 AM 84.2 °F 90.9 °F 73.4 °F 70% 29.92 in 6.2 mi ENE 12.7 mph - N/A   Partly Cloudy
8:00 AM 85 °F - 73 °F 60% 29.94 in 16 mi East 12.7 mph - -   Scattered Clouds
8:00 AM 86.0 °F 93.4 °F 73.4 °F 66% 29.92 in 6.2 mi ENE 12.7 mph - N/A   Partly Cloudy
9:00 AM 87.8 °F 95.6 °F 73.4 °F 62% 29.95 in 6.2 mi East 13.8 mph - N/A   Scattered Clouds
10:00 AM 86.0 °F 93.4 °F 73.4 °F 66% 29.95 in 6.2 mi ENE 15.0 mph - N/A Rain Light Rain Showers
11:00 AM 88 °F - 73 °F 53% 29.95 in 19 mi East 13.8 mph - - Rain Light Rain Showers
11:00 AM 87.8 °F 95.6 °F 73.4 °F 62% 29.95 in 6.2 mi East 13.8 mph - N/A   Scattered Clouds
12:00 PM 89.6 °F 96.2 °F 71.6 °F 55% 29.92 in 6.2 mi East 13.8 mph - N/A   Scattered Clouds
1:00 PM 89.6 °F 98.2 °F 73.4 °F 59% 29.89 in 6.2 mi ENE 13.8 mph - N/A   Scattered Clouds
2:00 PM 89 °F - 72 °F 48% 29.89 in 19 mi East 11.5 mph - -   Partly Cloudy
2:00 PM 89.6 °F 98.2 °F 73.4 °F 59% 29.89 in 6.2 mi East 11.5 mph - N/A   Scattered Clouds
3:00 PM 87.8 °F 93.8 °F 71.6 °F 58% 29.86 in 6.2 mi East 15.0 mph - N/A   Scattered Clouds
4:00 PM 87.8 °F 95.6 °F 73.4 °F 62% 29.86 in 6.2 mi East 16.1 mph - N/A   Scattered Clouds
5:00 PM 85 °F - 75 °F 66% 29.87 in 12 mi East 16.1 mph - - Rain Light Rain Showers
5:00 PM 86.0 °F 95.1 °F 75.2 °F 70% 29.86 in 6.2 mi East 16.1 mph - N/A Rain Light Rain Showers
6:00 PM 84.2 °F 90.9 °F 73.4 °F 70% 29.86 in 6.2 mi East 15.0 mph - N/A   Scattered Clouds
7:00 PM 84.2 °F 89.6 °F 71.6 °F 66% 29.89 in 6.2 mi ENE 15.0 mph - N/A   Scattered Clouds
8:00 PM 84 °F - 73 °F 63% 29.90 in 25 mi East 15.0 mph - -   Partly Cloudy
8:00 PM 84.2 °F 90.9 °F 73.4 °F 70% 29.89 in 6.2 mi East 15.0 mph - N/A   Scattered Clouds
9:00 PM 84.2 °F 89.6 °F 71.6 °F 66% 29.89 in 6.2 mi East 16.1 mph - N/A   Scattered Clouds
10:00 PM 84.2 °F 90.9 °F 73.4 °F 70% 29.92 in 6.2 mi East 11.5 mph - N/A   Scattered Clouds
11:00 PM 82.4 °F 88.2 °F 73.4 °F 74% 29.92 in 6.2 mi East 13.8 mph - N/A   Scattered Clouds